www.pogodaiklimat.ru

Погода и климат >> Архив погоды >> Вьетнам >> Плейку


ПОГОДА в Плейку

  • Прогноз погоды в Плейку
  • Монитор погоды в Плейку

АРХИВ ПОГОДЫ в Плейку

Время (UTC), дата Ветер
(напр.,м/с)
 
Видим.   Явления Облачность Т
(С)
Тd
(С)
f
(%)
Тe
(С)
Тes
(С)
Комфортность P
(гПа)
Po
(гПа)
Тmin
(С)
Tmax
(С)
R
(мм)
R24
(мм)
S
(см)
18 18.08 З 3 20 км 8/3 600 м
[Cu med, cong Cs]
+22.8 +22.0 95 +31 +31 очень
душно
1011.7 924.3
21 18.08 З 3 10 км в посл. час ливневой дождь 10/10 300 м
[Cb cap]
+22.6 +22.3 98 +30 +30 очень
душно
1011.4 924.0
00 19.08 З 2 20 км {ливн. осадки} 10/10 600 м
[Cb cap]
+22.5 +22.2 98 +30 +30 очень
душно
1011.7 924.3 +22.2 2
03 19.08 З 2 20 км {ливн. осадки} 8/8 600 м
[Sc diur, vesp]
+24.8 +22.4 87 +32 +36 очень
душно
1010.8 924.0
06 19.08 З 2 20 км {ливн. осадки} 5/5 600 м
[Cu med, cong]
+28.4 +22.0 68 +37 +47 очень
душно
1007.1 921.9 0.1
09 19.08 З 4 20 км 6/6 600 м
[Cb cap]
+29.0 +22.7 69 +38 +40 очень
душно
1005.3 920.7
12 19.08 З 2 20 км 5/5 600 м
[Cu med, cong]
+25.4 +23.2 88 +34 +34 очень
душно
1007.7 921.9 +30.0 0.1
15 19.08 З 2 20 км 3/1 600 м
[Cu hum Ci fib]
+24.0 +23.1 95 +32 +32 очень
душно
1009.6 922.8
18 19.08 З 2 20 км 4/0
[Cs]
+23.5 +23.0 97 +31 +31 очень
душно
1008.4 922.0
21 19.08 З 2 20 км 8/3 600 м
[Cu hum Cs]
+23.0 +22.8 99 +32 +32 очень
душно
1007.5 921.1
00 20.08 З 4 2000 м гроза, ливневой дождь 10/10 300 м
[Cb cap]
+21.6 +20.6 94 +27 +27 душно 1010.2 922.8 +21.6 16
03 20.08 З 3 4000 м ливневой дождь {гроза} 10/10 300 м
[Cb cap]
+21.0 +20.6 98 +27 +27 душно 1011.7 924.3
06 20.08 З 3 10 км слаб. дождь {гроза} 10/10 300 м
[Cu Sc]
+22.4 +21.1 92 +29 +29 очень
душно
1008.8 921.8 11
09 20.08 З 1 20 км {дождь} 9/5 600 м
[Cu Sc Ac lent Cs]
+24.8 +21.3 81 +31 +33 очень
душно
1006.4 920.0
12 20.08 З 3 20 км {дождь} 4/3 600 м
[Cu hum Ac lent]
+22.5 +20.9 91 +29 +29 очень
душно
1008.0 921.0 +25.7 11
15 20.08 ЮЗ 1 20 км 4/4 1500 м
[Sc]
+21.3 +20.6 96 +27 +27 душно 1010.2 922.8
18 20.08 ЮЗ 1 20 км 6/6 600 м
[Cu Sc]
+21.1 +20.6 97 +26 +26 душно 1009.4 922.4
21 20.08 З 2 1000 м туман 10/10 300 м
[Cu Sc]
+21.1 +21.1 100 +26 +26 душно 1008.9 921.9
00 21.08 З 3 50 м туман ?/? +21.4 +21.4 100 +27 +27 душно 1010.2 922.8
03 21.08 ЮЗ 3 20 км в посл. час дождь {туман} 10/10 300 м
[Cu Sc]
+22.9 +21.8 94 +31 +31 очень
душно
1010.9 923.5
06 21.08 З 2 20 км {дождь, туман} 9/9 600 м
[Cu Sc]
+25.0 +22.1 84 +32 +34 очень
душно
1008.1 922.3 0.3
09 21.08 З 3 20 км 9/4 600 м
[Cu med, cong Ac lent Cs]
+27.0 +20.4 67 +33 +35 очень
душно
1005.9 920.7
12 21.08 З 1 20 км зарница 9/4 600 м
[Cb cap Cs]
+23.8 +21.7 88 +30 +30 очень
душно
1008.7 922.3 +27.4 0.3
15 21.08 З 1 20 км 9/9 300 м
[Cb cap]
+23.2 +21.7 91 +31 +31 очень
душно
1011.1 924.3
18 21.08 З 3 4000 м ливневой дождь 10/10 300 м
[Cb cap]
+20.7 +20.5 99 +26 +26 душно 1011.9 923.8 12
21 21.08 ЮЗ 2 10 км слаб. дождь 10/10 300 м
[Cu Sc]
+20.8 +20.6 99 +26 +26 душно 1012.2 924.1
00 22.08 штиль 0 10 км слаб. дождь 10/10 300 м
[Cu Sc]
+21.0 +20.8 99 +26 +26 душно 1011.7 924.3 +20.4 20
03 22.08 З 2 20 км {дождь} 10/10 300 м
[Cu Sc]
+23.7 +21.7 89 +30 +30 очень
душно
1011.1 924.3
06 22.08 З 2 20 км {дождь} 9/9 600 м
[Cu Sc]
+24.1 +21.7 86 +31 +33 очень
душно
1009.8 923.0 0.0
09 22.08 З 1 20 км 9/8 600 м
[Cu med, cong Ac lent]
+26.5 +21.5 74 +34 +34 очень
душно
1007.7 921.9
12 22.08 ЮЗ 1 20 км зарница 8/8 600 м
[Cb cap]
+23.4 +22.0 92 +32 +32 очень
душно
1009.4 922.6 +26.6 0.0
15 22.08 ЮЗ 2 20 км 8/8 600 м
[Cu Sc]
+22.0 +20.7 92 +28 +28 душно 1012.4 925.0
18 22.08 З 2 20 км 6/0
[Ac trans]
+21.2 +20.4 95 +26 +26 душно 1010.6 923.2
21 22.08 З 2 20 км {дождь} 10/10 300 м
[Cu Sc]
+20.8 +20.3 97 +26 +26 душно 1011.2 923.1
00 23.08 З 2 500 м слаб. дождь {туман} туман 10/10
[Cu Sc]
+21.0 +21.0 100 +27 +27 душно 1011.9 924.5 +20.8 0.2
03 23.08 ЮЗ 2 10 км слаб. дождь {туман} 10/10 300 м
[Cu Sc]
+22.6 +21.7 95 +30 +30 очень
душно
1012.7 925.3
06 23.08 ЮЗ 2 10 км в посл. час ливневой дождь 9/9 300 м
[Cu Sc]
+24.3 +21.4 84 +31 +33 очень
душно
1010.3 923.5 0.0
09 23.08 З 2 20 км 8/8 600 м
[Cu Sc]
+26.5 +21.7 75 +34 +35 очень
душно
1007.4 921.6
12 23.08 З 1 20 км 9/5
[Cb cap Cs]
+23.4 +22.3 94 +32 +32 очень
душно
1009.6 922.8 +26.6 0.0
15 23.08 З 1 20 км 10/10 300 м
[Cb cap]
+22.6 +22.0 96 +30 +30 очень
душно
1011.8 924.4
18 23.08 З 2 10 км слаб. ливневой дождь 10/10 300 м
[Cb cap]
+22.4 +21.8 96 +30 +30 очень
душно
1010.4 923.0 0.3
21 23.08 З 3 10 км слаб. дождь 10/10 300 м
[Cu Sc]
+20.7 +20.5 99 +26 +26 душно 1009.9 922.3
00 24.08 З 3 10 км в посл. час дождь {ливн. осадки} 10/10
[Cu Sc]
+20.7 +20.5 99 +26 +26 душно 1009.8 922.2 +20.7 7
03 24.08 З 3 20 км {дождь} 10/10 600 м
[Cu Sc]
+23.0 +21.1 89 +31 +31 очень
душно
1010.3 923.5
06 24.08 З 2 20 км {дождь} 9/9 600 м
[Cu Sc]
+25.0 +21.2 79 +32 +34 очень
душно
1007.2 921.4 0.1
09 24.08 З 2 20 км 4/3 600 м
[Cu med, cong Ci fib]
+26.9 +21.3 71 +34 +37 очень
душно
1005.7 919.9
12 24.08 З 2 10 км слаб. ливневой дождь 9/9 300 м
[Sc diur, vesp]
+22.4 +21.9 97 +30 +30 очень
душно
1008.1 921.1 +26.9 2
15 24.08 З 3 20 км {ливн. осадки} 3/3 300 м
[Cu Sc]
+21.9 +21.4 97 +28 +28 душно 1010.2 922.8
18 24.08 ЮЗ 3 10 км слаб. дождь 10/10 300 м
[Cu Sc]
+21.7 +21.5 99 +28 +28 душно 1009.1 922.1 0.2
21 24.08 З 3 20 км {дождь} 10/10 300 м
[Cu Sc]
+21.2 +20.9 98 +27 +27 душно 1007.0 920.0
00 25.08 З 3 10 км в посл. час дождь 10/10
[Cu Sc]
+21.4 +21.2 99 +27 +27 душно 1010.1 922.7 +21.0 3
03 25.08 З 3 10 км слаб. ливневой дождь 10/10 300 м
[Cu Sc]
+22.2 +21.6 96 +29 +29 очень
душно
1010.7 923.3
06 25.08 З 3 20 км в посл. час ливневой дождь 8/8 300 м
[Cu Sc]
+25.3 +21.7 80 +32 +36 очень
душно
1007.3 921.5 2
09 25.08 ЮЗ 2 10 км слаб. ливневой дождь 9/9 300 м
[Cb calv]
+23.0 +22.1 95 +31 +32 очень
душно
1007.1 920.7
12 25.08 З 1 20 км в посл. час ливневой дождь 8/8 300 м
[Cu Sc]
+22.7 +22.2 97 +31 +31 очень
душно
1008.7 921.7 +26.0 6

 

Местоположение метеостанции Плейку (Вьетнам): широта 13.98 долгота 108.00 высота над уровнем моря 801 м.

В архиве по умолчанию представлена погода в Плейку за последнюю неделю. Архивные данные за месяц целиком и за предыдущие месяцы, начиная с января 2011 года, Вы можете получить, выбрав интересующий диапазон дат из раскрывающегося списка и нажав кнопку "Ввод!".


*Определитесь, кто Вы:
робот инопланетянин человек

Внимание! Время в таблицах - всемирное. Для получения местного времени необходимо прибавить поправку, которая равна 7 ч.

Смотрите также архив погоды в соседних городах и на ближайших метеорологических станциях:

Погода в Куинёне (Вьетнам) (133 км)
Погода в Буонметхуоте (Вьетнам) (145 км)
Погода в Куангнгае (Вьетнам) (153 км)
Погода в Аттапы (Лаос) (158 км)
Погода в Секонге (Лаос) (204 км)
Погода в Дананге (Вьетнам) (235 км)
Погода в Нячанге (Вьетнам) (236 км)
Погода в Сараване (Лаос) (257 км)
Погода в Паксе (Лаос) (271 км)
Погода в Хюэ (Вьетнам) (276 км)

Пояснения к столбцам:

Ветер - указаны скорость ветра в м/с - средняя за 10 мин, порывы в срок и между сроками (в фигурных скобках) и направление, откуда дует ветер: С - северный, СВ - северо-восточный, В - восточный, ЮВ - юго-восточный, Ю - южный, ЮЗ - юго-западный, З - западный, СЗ - северо-западный.
Видимость - горизонтальная дальность видимости в метрах или километрах. При видимости от 1 до 10 км при отсутствии осадков обычно наблюдается дымка, при ухудшении видимости до 1 км и менее - туман. В сухую погоду видимость может ухудшаться дымом, пылью или мглою.
Явления - указаны атмосферные явления, наблюдавшиеся в срок или в последний час перед сроком; фигурными скобками обозначены явления, наблюдавшиеся между сроками (за 1-3 часа до срока); квадратными скобками обозначены град или гололедные отложения с указанием их диаметра в мм.
Облачность - указаны через наклонную черту общая и нижняя облачность в баллах и высота нижней границы облаков в метрах; квадратными скобками обозначены формы облаков: Ci - перистые, Cs - перисто-слоистые, Cc - перисто-кучевые, Ac - высококучевые, As - высокослоистые, Sc - слоисто-кучевые, Ns - слоисто-дождевые, Cu - кучевые, Cb - кучево-дождевые. Подробнее классификацию облаков см. в Атласе облаков (PDF).
T - Температура воздуха - температура, измеренная на высоте 2 м над землей.
Td - Температура точки росы - температура, при понижении до которой содержащийся в воздухе водяной пар достигнет насыщения.
f - Относительная влажность воздуха - влажноcть воздуха, измеренная на высоте 2 м над землей.
Te - Эффективная температура - температура, которую ощущает одетый по сезону человек в тени. Характеристика душности погоды. При расчете учитывается влияние влажности воздуха и скорости ветра на теплоощущения человека.
Tes - Эффективная температура на солнце - температура, которую ощущает человек, с поправкой на солнечный нагрев. Характеристика знойности погоды. Зависит от высоты солнца над горизонтом, облачности и скорости ветра. Ночью, в пасмурную погоду, а также при ветре 12 м/с и более поправка равна нулю.
P - Атмосферное давление - приведенное к уровню моря атмосферное давление.
Po - Атмосферное давление - измеренное на уровне метеостанции атмосферное давление.
Tmin - Минимальная температура - минимум температуры воздуха на высоте 2 м над землей.
Tmax - Максимальная температура - максимум температуры воздуха на высоте 2 м над землей.
R - Количество осадков - Количество выпавших осадков за период времени, мм. При наведении курсора мыши на число - период времени, за который выпало указанное количество осадков.
R24 - Количество осадков - Количество выпавших осадков за 24 часа, мм.
S - Снежный покров - Высота снежного покрова, см. При наведении курсора мыши на число - состояние снежного покрова и степень покрытия местности в баллах.